CZ-3B DEB, 40851

Orbit data source: Space-Track

CZ-3B DEB, 40851 is space debris in HEO originally from a launch on Mon, 19 Dec 2011 UTC launched from the Xichang Space Center, China (XSC). Debris objects in space refer to the collection of defunct objects orbiting the Earth. Examples of debris include non-operational satellites, rocket bodies, and fragments generated from explosions, collisions, or faulty payload assembly.

Loading next visibility...
Identifier
40851, 2011-077AG
Orbit
HEO
Last TLE update
1 day ago
Origin
Manufacturer
CALT
Mission
Spacecraft
Bus & Motor
Unknown
Mass
Unknown
Launch date (UTC)
2011-12-19 (13 years ago)
Launch vehicle
Unknown
Launch site
Xichang Space Center, China (XSC)
Object type
Payload
Rocket body
Debris
Shape & HBR
Unknown
Radar Cross Section
Medium (>0.1 m² and <1 m²)

Expand to show TLE details & history

TLE from 1 day ago
0 CZ-3B DEB
1 40851U 11077AG  25127.99705866  .00000124  00000-0  83320-2 0  9996
2 40851  25.5932 126.8582 7340096 183.5026 164.6619  1.90207000 78526
Epoch: 2025-05-07T23:55Z
Definitive object data (Epoch: 2025-05-07T23:55:45.868Z)
Latitude
-0.00019°
Longitude
-98.16651°
Altitude
41,063.775 km
Speed
1.522 km/s
True Right ascension
08h 27m 23s
True Declination
0° 00' 01"
Sunlit
Object was in daylight at TLE epoch
Visualization TLE readout
Latitude
15.55355°
Longitude
-62.83668°
Altitude
25,811.881 km
Speed
3.206 km/s
Apparent Right ascension
10h 19m 05s
Apparent Declination
9° 15' 14"
Sunlit
Object is in daylight
Visualization observer readout
Local Sidereal Time
13:57:51
Azimuth
253.232° W
Elevation
32.732°
Doppler factor
1
Orbital elements
Apogee altitude
41,341.158 km
Perigee altitude
941.819 km
Semi-major axis
27,519.626 km
Eccentricity
0.7340096
Inclination
25.5932°
RAAN
126.8582°
Arg. of periapsis
183.5026°
True anomaly
176.52389°
Mean anomaly
164.6619°
Eccentric anomaly
171.13962°
Mean motion
0.47542 °/min
BSTAR
0.008332
Orbital period
757.22 mins
Loading maneuver chart data...
Loading SW <> Apogee altitude chart data...
Loading historical data...
Loading historical data...
Loading historical data...
Loading historical data...
Loading historical data...
Loading historical data...
Loading historical data...

CZ-3B DEB Visibility forecast

Observer location: undefined°, undefined°

Span
Click to sort rows by Start time (UTC) header in descending order
Start Az.
Max El. time (UTC)
Max El. Az.
Max El.
End time (UTC)
End Az.
119 mins2025-05-09 05:49:07.586Z253.208° W2025-05-09 07:35:07.586Z202.903° SW39.769°2025-05-09 07:48:07.586Z129.922° SE
487 mins2025-05-09 21:42:07.586Z194.236° SSW2025-05-10 01:15:07.586Z210.162° SW30.577°2025-05-10 05:49:07.586Z259.253° W
|